Time,TemperatureF,DewpointF,PressureIn,WindDirection,WindDirectionDegrees,WindSpeedMPH,WindSpeedGustMPH,Humidity,HourlyPrecipIn,Conditions,Clouds,dailyrainin,SoftwareType,DateUTC
2013-01-16 00:00:00,43.3,40.1,30.18,NNW,329,18.0,22.4,88,0.00,,,-99.99,FreeWX 2.03,2013-01-16 06:00:00,
2013-01-16 00:05:00,43.3,40.3,30.18,NNW,328,17.0,20.6,89,0.00,,,-99.99,FreeWX 2.03,2013-01-16 06:05:00,
2013-01-16 00:10:00,43.3,39.7,30.21,NW,325,17.0,23.3,87,0.00,,,-99.99,FreeWX 2.03,2013-01-16 06:10:00,
2013-01-16 00:15:00,43.5,39.6,30.21,NW,323,17.0,22.4,86,0.00,,,-99.99,FreeWX 2.03,2013-01-16 06:15:00,
2013-01-16 00:20:00,43.5,39.6,30.21,NW,322,17.0,22.4,86,0.00,,,-99.99,FreeWX 2.03,2013-01-16 06:20:00,
2013-01-16 00:25:00,43.7,39.7,30.21,NW,325,17.0,21.9,86,0.00,,,-99.99,FreeWX 2.03,2013-01-16 06:25:00,
2013-01-16 00:30:00,43.7,39.7,30.21,NW,324,16.0,21.0,86,0.00,,,-99.99,FreeWX 2.03,2013-01-16 06:30:00,
2013-01-16 00:35:00,43.7,39.6,30.21,NW,322,16.0,21.5,85,0.00,,,-99.99,FreeWX 2.03,2013-01-16 06:35:00,
2013-01-16 00:40:00,43.7,38.8,30.21,NW,322,18.0,23.7,83,0.00,,,-99.99,FreeWX 2.03,2013-01-16 06:40:00,
2013-01-16 00:45:00,43.7,38.3,30.21,NW,325,18.0,24.2,81,0.00,,,-99.99,FreeWX 2.03,2013-01-16 06:45:00,
2013-01-16 00:50:00,43.9,39.0,30.21,NW,325,16.0,20.1,83,0.00,,,-99.99,FreeWX 2.03,2013-01-16 06:50:00,
2013-01-16 00:55:00,43.7,37.6,30.21,NW,323,16.0,23.7,79,0.00,,,-99.99,FreeWX 2.03,2013-01-16 06:55:00,
2013-01-16 01:00:00,43.7,37.0,30.21,NNW,327,18.0,24.2,77,0.00,,,-99.99,FreeWX 2.03,2013-01-16 07:00:00,
2013-01-16 01:05:00,43.7,37.2,30.21,NNW,328,17.0,20.6,78,0.00,,,-99.99,FreeWX 2.03,2013-01-16 07:05:00,
2013-01-16 01:10:00,43.7,37.6,30.21,NNW,329,14.0,19.5,79,0.00,,,-99.99,FreeWX 2.03,2013-01-16 07:10:00,
2013-01-16 01:15:00,43.9,38.5,30.21,NNW,327,13.0,19.5,81,0.00,,,-99.99,FreeWX 2.03,2013-01-16 07:15:00,
2013-01-16 01:20:00,43.7,37.9,30.21,NW,323,14.0,21.5,80,0.00,,,-99.99,FreeWX 2.03,2013-01-16 07:20:00,
2013-01-16 01:25:00,43.9,38.1,30.21,NW,324,16.0,20.1,80,0.00,,,-99.99,FreeWX 2.03,2013-01-16 07:25:00,
2013-01-16 01:30:00,43.9,38.5,30.21,NW,324,15.0,19.0,81,0.00,,,-99.99,FreeWX 2.03,2013-01-16 07:30:00,
2013-01-16 01:35:00,44.1,38.8,30.21,NW,321,14.0,17.2,82,0.00,,,-99.99,FreeWX 2.03,2013-01-16 07:35:00,
2013-01-16 01:40:00,44.1,37.9,30.21,NW,321,15.0,21.0,79,0.00,,,-99.99,FreeWX 2.03,2013-01-16 07:40:00,
2013-01-16 01:45:00,43.9,37.4,30.21,NW,324,15.0,19.9,78,0.00,,,-99.99,FreeWX 2.03,2013-01-16 07:45:00,
2013-01-16 01:50:00,43.9,37.4,30.21,NW,326,14.0,19.9,78,0.00,,,-99.99,FreeWX 2.03,2013-01-16 07:50:00,
2013-01-16 01:55:00,43.9,37.4,30.24,NW,325,15.0,21.5,78,0.00,,,-99.99,FreeWX 2.03,2013-01-16 07:55:00,
2013-01-16 02:01:00,44.1,37.4,30.24,NW,323,15.0,21.0,77,0.00,,,-99.99,FreeWX 2.03,2013-01-16 08:01:00,
2013-01-16 02:06:00,44.1,37.0,30.24,NW,325,14.0,18.1,76,0.00,,,-99.99,FreeWX 2.03,2013-01-16 08:06:00,
2013-01-16 02:11:00,43.9,35.4,30.21,NNW,327,15.0,23.3,72,0.00,,,-99.99,FreeWX 2.03,2013-01-16 08:11:00,
2013-01-16 02:16:00,44.1,35.2,30.21,NNW,329,15.0,21.0,71,0.00,,,-99.99,FreeWX 2.03,2013-01-16 08:16:00,
2013-01-16 02:21:00,44.1,34.5,30.21,NNW,331,14.0,19.9,69,0.00,,,-99.99,FreeWX 2.03,2013-01-16 08:21:00,
2013-01-16 02:26:00,44.1,33.8,30.24,NNW,330,15.0,21.5,67,0.00,,,-99.99,FreeWX 2.03,2013-01-16 08:26:00,
2013-01-16 02:31:00,43.9,33.6,30.24,NNW,327,15.0,21.5,67,0.00,,,-99.99,FreeWX 2.03,2013-01-16 08:31:00,
2013-01-16 02:36:00,44.1,33.4,30.24,NNW,327,15.0,23.7,66,0.00,,,-99.99,FreeWX 2.03,2013-01-16 08:36:00,
2013-01-16 02:41:00,43.9,32.2,30.24,NNW,327,17.0,24.2,63,0.00,,,-99.99,FreeWX 2.03,2013-01-16 08:41:00,
2013-01-16 02:46:00,43.9,32.2,30.24,NW,324,18.0,23.7,63,0.00,,,-99.99,FreeWX 2.03,2013-01-16 08:46:00,
2013-01-16 02:51:00,43.9,31.6,30.24,NW,326,17.0,22.8,62,0.00,,,-99.99,FreeWX 2.03,2013-01-16 08:51:00,
2013-01-16 02:56:00,43.9,32.5,30.24,NW,326,16.0,19.5,64,0.00,,,-99.99,FreeWX 2.03,2013-01-16 08:56:00,
2013-01-16 03:01:00,43.7,30.4,30.24,NW,324,16.0,24.2,59,0.00,,,-99.99,FreeWX 2.03,2013-01-16 09:01:00,
2013-01-16 03:06:00,43.7,30.4,30.24,NW,325,17.0,21.0,59,0.00,,,-99.99,FreeWX 2.03,2013-01-16 09:06:00,
2013-01-16 03:11:00,43.7,30.4,30.21,NNW,329,15.0,21.9,59,0.00,,,-99.99,FreeWX 2.03,2013-01-16 09:11:00,
2013-01-16 03:16:00,43.7,30.7,30.21,NNW,330,15.0,22.8,60,0.00,,,-99.99,FreeWX 2.03,2013-01-16 09:16:00,
2013-01-16 03:21:00,43.5,29.3,30.21,NNW,330,16.0,22.8,57,0.00,,,-99.99,FreeWX 2.03,2013-01-16 09:21:00,
2013-01-16 03:26:00,43.7,30.4,30.24,NNW,331,16.0,21.5,59,0.00,,,-99.99,FreeWX 2.03,2013-01-16 09:26:00,
2013-01-16 03:31:00,43.7,30.7,30.24,NNW,330,16.0,22.8,60,0.00,,,-99.99,FreeWX 2.03,2013-01-16 09:31:00,
2013-01-16 03:36:00,43.7,31.5,30.24,NW,326,15.0,20.6,62,0.00,,,-99.99,FreeWX 2.03,2013-01-16 09:36:00,
2013-01-16 03:41:00,43.5,30.6,30.24,NNW,327,15.0,20.1,60,0.00,,,-99.99,FreeWX 2.03,2013-01-16 09:41:00,
2013-01-16 03:46:00,43.5,30.9,30.24,NNW,330,14.0,24.8,61,0.00,,,-99.99,FreeWX 2.03,2013-01-16 09:46:00,
2013-01-16 03:51:00,43.5,30.6,30.24,NNW,327,14.0,19.0,60,0.00,,,-99.99,FreeWX 2.03,2013-01-16 09:51:00,
2013-01-16 03:56:00,43.3,30.4,30.24,NNW,327,14.0,21.5,60,0.00,,,-99.99,FreeWX 2.03,2013-01-16 09:56:00,
2013-01-16 04:01:00,43.3,30.4,30.24,NNW,329,14.0,21.5,60,0.00,,,-99.99,FreeWX 2.03,2013-01-16 10:01:00,
2013-01-16 04:06:00,43.3,29.5,30.24,NNW,329,14.0,20.1,58,0.00,,,-99.99,FreeWX 2.03,2013-01-16 10:06:00,
2013-01-16 04:11:00,43.3,29.1,30.24,NNW,331,15.0,20.6,57,0.00,,,-99.99,FreeWX 2.03,2013-01-16 10:11:00,
2013-01-16 04:16:00,43.3,29.5,30.24,NNW,329,14.0,18.1,58,0.00,,,-99.99,FreeWX 2.03,2013-01-16 10:16:00,
2013-01-16 04:21:00,43.2,29.5,30.24,NNW,329,13.0,19.0,58,0.00,,,-99.99,FreeWX 2.03,2013-01-16 10:21:00,
2013-01-16 04:26:00,43.3,30.0,30.24,NNW,330,13.0,17.2,59,0.00,,,-99.99,FreeWX 2.03,2013-01-16 10:26:00,
2013-01-16 04:31:00,43.2,29.8,30.24,NNW,330,12.0,18.1,59,0.00,,,-99.99,FreeWX 2.03,2013-01-16 10:31:00,
2013-01-16 04:36:00,43.2,30.2,30.24,NNW,329,12.0,17.2,60,0.00,,,-99.99,FreeWX 2.03,2013-01-16 10:36:00,
2013-01-16 04:41:00,43.2,29.5,30.24,NNW,328,12.0,19.5,58,0.00,,,-99.99,FreeWX 2.03,2013-01-16 10:41:00,
2013-01-16 04:46:00,43.2,28.6,30.24,NNW,327,14.0,23.7,56,0.00,,,-99.99,FreeWX 2.03,2013-01-16 10:46:00,
2013-01-16 04:51:00,43.0,27.9,30.24,NW,324,15.0,20.6,55,0.00,,,-99.99,FreeWX 2.03,2013-01-16 10:51:00,
2013-01-16 04:56:00,43.0,27.0,30.24,NW,324,15.0,21.0,53,0.00,,,-99.99,FreeWX 2.03,2013-01-16 10:56:00,
2013-01-16 05:01:00,43.2,28.0,30.24,NW,326,15.0,20.6,55,0.00,,,-99.99,FreeWX 2.03,2013-01-16 11:01:00,
2013-01-16 05:06:00,43.0,28.4,30.24,NW,326,15.0,20.6,56,0.00,,,-99.99,FreeWX 2.03,2013-01-16 11:06:00,
2013-01-16 05:11:00,43.0,27.5,30.27,NW,323,16.0,20.6,54,0.00,,,-99.99,FreeWX 2.03,2013-01-16 11:11:00,
2013-01-16 05:16:00,43.0,27.0,30.27,NW,321,15.0,20.6,53,0.00,,,-99.99,FreeWX 2.03,2013-01-16 11:16:00,
2013-01-16 05:21:00,43.0,29.3,30.27,NW,318,15.0,19.0,58,0.00,,,-99.99,FreeWX 2.03,2013-01-16 11:21:00,
2013-01-16 05:26:00,43.0,30.0,30.27,NW,318,14.0,19.0,60,0.00,,,-99.99,FreeWX 2.03,2013-01-16 11:26:00,
2013-01-16 05:31:00,43.0,27.9,30.27,NW,320,15.0,19.9,55,0.00,,,-99.99,FreeWX 2.03,2013-01-16 11:31:00,
2013-01-16 05:36:00,43.0,28.8,30.27,NW,318,16.0,20.6,57,0.00,,,-99.99,FreeWX 2.03,2013-01-16 11:36:00,
2013-01-16 05:41:00,43.0,29.3,30.27,NW,318,16.0,19.9,58,0.00,,,-99.99,FreeWX 2.03,2013-01-16 11:41:00,
2013-01-16 05:46:00,42.8,28.6,30.27,NW,317,16.0,21.0,57,0.00,,,-99.99,FreeWX 2.03,2013-01-16 11:46:00,
2013-01-16 05:51:00,42.8,29.5,30.27,NW,317,16.0,19.0,59,0.00,,,-99.99,FreeWX 2.03,2013-01-16 11:51:00,
2013-01-16 05:56:00,42.8,28.6,30.27,NW,316,16.0,21.9,57,0.00,,,-99.99,FreeWX 2.03,2013-01-16 11:56:00,
2013-01-16 06:01:00,42.8,29.5,30.27,NW,316,16.0,21.0,59,0.00,,,-99.99,FreeWX 2.03,2013-01-16 12:01:00,
2013-01-16 06:06:00,42.6,28.0,30.27,NW,316,17.0,21.5,56,0.00,,,-99.99,FreeWX 2.03,2013-01-16 12:06:00,
2013-01-16 06:11:00,42.3,28.0,30.27,NW,316,17.0,21.5,57,0.00,,,-99.99,FreeWX 2.03,2013-01-16 12:11:00,
2013-01-16 06:16:00,42.3,28.0,30.27,NW,315,17.0,20.6,57,0.00,,,-99.99,FreeWX 2.03,2013-01-16 12:16:00,
2013-01-16 06:21:00,41.9,27.9,30.27,NW,317,17.0,20.1,57,0.00,,,-99.99,FreeWX 2.03,2013-01-16 12:21:00,
2013-01-16 06:26:00,41.7,28.0,30.27,NW,318,17.0,22.8,58,0.00,,,-99.99,FreeWX 2.03,2013-01-16 12:26:00,
2013-01-16 06:31:00,41.7,28.4,30.27,NW,316,17.0,21.9,59,0.00,,,-99.99,FreeWX 2.03,2013-01-16 12:31:00,
2013-01-16 06:36:00,41.5,28.2,30.27,NW,313,17.0,20.6,59,0.00,,,-99.99,FreeWX 2.03,2013-01-16 12:36:00,
2013-01-16 06:41:00,41.4,27.3,30.27,NW,312,17.0,21.0,57,0.00,,,-99.99,FreeWX 2.03,2013-01-16 12:41:00,
2013-01-16 06:46:00,41.2,28.0,30.27,NW,312,18.0,23.3,59,0.00,,,-99.99,FreeWX 2.03,2013-01-16 12:46:00,
2013-01-16 06:51:00,41.0,28.6,30.27,NW,313,17.0,22.8,61,0.00,,,-99.99,FreeWX 2.03,2013-01-16 12:51:00,
2013-01-16 06:56:00,40.8,28.4,30.30,NW,313,17.0,20.6,61,0.00,,,-99.99,FreeWX 2.03,2013-01-16 12:56:00,
2013-01-16 07:01:00,40.6,27.9,30.30,NW,312,17.0,21.5,60,0.00,,,-99.99,FreeWX 2.03,2013-01-16 13:01:00,
2013-01-16 07:06:00,40.5,28.4,30.30,NW,312,17.0,20.1,62,0.00,,,-99.99,FreeWX 2.03,2013-01-16 13:06:00,
2013-01-16 07:11:00,40.3,27.9,30.30,NW,313,16.0,19.9,61,0.00,,,-99.99,FreeWX 2.03,2013-01-16 13:11:00,
2013-01-16 07:16:00,40.3,28.8,30.30,NW,313,15.0,19.5,63,0.00,,,-99.99,FreeWX 2.03,2013-01-16 13:16:00,
2013-01-16 07:21:00,40.1,28.2,30.30,NW,313,15.0,19.0,62,0.00,,,-99.99,FreeWX 2.03,2013-01-16 13:21:00,
2013-01-16 07:26:00,39.9,27.1,30.30,NW,317,16.0,20.1,60,0.00,,,-99.99,FreeWX 2.03,2013-01-16 13:26:00,
2013-01-16 07:31:00,39.9,26.8,30.30,NW,318,15.0,18.1,59,0.00,,,-99.99,FreeWX 2.03,2013-01-16 13:31:00,
2013-01-16 07:36:00,39.9,26.8,30.30,NW,317,14.0,19.5,59,0.00,,,-99.99,FreeWX 2.03,2013-01-16 13:36:00,
2013-01-16 07:41:00,39.9,26.4,30.30,NW,317,15.0,19.5,58,0.00,,,-99.99,FreeWX 2.03,2013-01-16 13:41:00,
2013-01-16 07:46:00,39.9,27.1,30.30,NW,317,15.0,17.2,60,0.00,,,-99.99,FreeWX 2.03,2013-01-16 13:46:00,
2013-01-16 07:51:00,39.7,27.0,30.30,NW,319,14.0,19.5,60,0.00,,,-99.99,FreeWX 2.03,2013-01-16 13:51:00,
2013-01-16 07:56:00,39.7,27.3,30.30,NW,317,14.0,17.2,61,0.00,,,-99.99,FreeWX 2.03,2013-01-16 13:56:00,
2013-01-16 08:01:00,39.7,27.0,30.30,NW,317,15.0,18.6,60,0.00,,,-99.99,FreeWX 2.03,2013-01-16 14:01:00,
2013-01-16 08:06:00,39.9,27.1,30.30,NW,317,16.0,19.0,60,0.00,,,-99.99,FreeWX 2.03,2013-01-16 14:06:00,
2013-01-16 08:11:00,39.9,26.4,30.33,NW,316,15.0,19.9,58,0.00,,,-99.99,FreeWX 2.03,2013-01-16 14:11:00,
2013-01-16 08:16:00,40.1,27.0,30.33,NW,317,15.0,20.6,59,0.00,,,-99.99,FreeWX 2.03,2013-01-16 14:16:00,
2013-01-16 08:21:00,39.9,25.5,30.33,NW,316,15.0,18.6,56,0.00,,,-99.99,FreeWX 2.03,2013-01-16 14:21:00,
2013-01-16 08:26:00,40.1,25.2,30.33,NW,317,16.0,19.9,55,0.00,,,-99.99,FreeWX 2.03,2013-01-16 14:26:00,
2013-01-16 08:31:00,40.1,25.2,30.33,NW,317,16.0,19.9,55,0.00,,,-99.99,FreeWX 2.03,2013-01-16 14:31:00,
2013-01-16 08:36:00,40.5,25.2,30.33,NW,316,15.0,19.5,54,0.00,,,-99.99,FreeWX 2.03,2013-01-16 14:36:00,
2013-01-16 08:41:00,40.5,24.3,30.33,NW,315,16.0,22.4,52,0.00,,,-99.99,FreeWX 2.03,2013-01-16 14:41:00,
2013-01-16 08:46:00,40.6,24.8,30.33,NW,316,16.0,19.0,53,0.00,,,-99.99,FreeWX 2.03,2013-01-16 14:46:00,
2013-01-16 08:51:00,40.8,23.7,30.33,NW,316,16.0,20.6,50,0.00,,,-99.99,FreeWX 2.03,2013-01-16 14:51:00,
2013-01-16 08:56:00,40.8,23.2,30.33,NW,319,16.0,20.1,49,0.00,,,-99.99,FreeWX 2.03,2013-01-16 14:56:00,
2013-01-16 09:01:00,41.4,24.1,30.33,NW,320,16.0,21.9,50,0.00,,,-99.99,FreeWX 2.03,2013-01-16 15:01:00,
2013-01-16 09:06:00,41.5,22.3,30.33,NW,320,16.0,20.6,46,0.00,,,-99.99,FreeWX 2.03,2013-01-16 15:06:00,
2013-01-16 09:11:00,41.7,22.5,30.33,NW,318,17.0,20.6,46,0.00,,,-99.99,FreeWX 2.03,2013-01-16 15:11:00,
2013-01-16 09:16:00,41.9,21.0,30.33,NW,317,16.0,20.6,43,0.00,,,-99.99,FreeWX 2.03,2013-01-16 15:16:00,
2013-01-16 09:21:00,42.4,21.6,30.33,NW,318,16.0,21.0,43,0.00,,,-99.99,FreeWX 2.03,2013-01-16 15:21:00,
2013-01-16 09:26:00,42.6,22.3,30.33,NW,319,15.0,19.5,44,0.00,,,-99.99,FreeWX 2.03,2013-01-16 15:26:00,
2013-01-16 09:31:00,42.8,21.9,30.33,NW,319,14.0,19.9,43,0.00,,,-99.99,FreeWX 2.03,2013-01-16 15:31:00,
2013-01-16 09:36:00,43.2,22.3,30.33,NW,317,13.0,20.1,43,0.00,,,-99.99,FreeWX 2.03,2013-01-16 15:36:00,
2013-01-16 09:41:00,43.3,21.2,30.33,NW,317,14.0,19.0,41,0.00,,,-99.99,FreeWX 2.03,2013-01-16 15:41:00,
2013-01-16 09:46:00,43.7,21.6,30.33,NW,318,15.0,20.1,41,0.00,,,-99.99,FreeWX 2.03,2013-01-16 15:46:00,
2013-01-16 09:51:00,43.9,21.2,30.33,NW,319,14.0,21.5,40,0.00,,,-99.99,FreeWX 2.03,2013-01-16 15:51:00,
2013-01-16 09:56:00,44.1,21.4,30.33,NW,317,15.0,20.6,40,0.00,,,-99.99,FreeWX 2.03,2013-01-16 15:56:00,
2013-01-16 10:01:00,44.4,21.6,30.33,NW,315,15.0,20.6,40,0.00,,,-99.99,FreeWX 2.03,2013-01-16 16:01:00,
2013-01-16 10:06:00,44.8,21.4,30.33,NW,314,15.0,22.4,39,0.00,,,-99.99,FreeWX 2.03,2013-01-16 16:06:00,
2013-01-16 10:11:00,45.0,21.6,30.36,NW,313,15.0,20.6,39,0.00,,,-99.99,FreeWX 2.03,2013-01-16 16:11:00,
2013-01-16 10:16:00,45.1,21.7,30.36,NW,312,15.0,19.9,39,0.00,,,-99.99,FreeWX 2.03,2013-01-16 16:16:00,
2013-01-16 10:21:00,45.1,21.0,30.36,NW,312,15.0,21.5,38,0.00,,,-99.99,FreeWX 2.03,2013-01-16 16:21:00,
2013-01-16 10:26:00,45.1,21.0,30.36,NW,312,16.0,20.6,38,0.00,,,-99.99,FreeWX 2.03,2013-01-16 16:26:00,
2013-01-16 10:31:00,45.3,21.2,30.36,NW,312,16.0,21.5,38,0.00,,,-99.99,FreeWX 2.03,2013-01-16 16:31:00,
2013-01-16 10:36:00,45.5,21.9,30.36,NW,309,15.0,19.9,39,0.00,,,-99.99,FreeWX 2.03,2013-01-16 16:36:00,
2013-01-16 10:41:00,45.5,21.9,30.33,NW,309,15.0,20.6,39,0.00,,,-99.99,FreeWX 2.03,2013-01-16 16:41:00,
2013-01-16 10:46:00,45.7,22.1,30.33,NW,311,14.0,17.2,39,0.00,,,-99.99,FreeWX 2.03,2013-01-16 16:46:00,
2013-01-16 10:51:00,46.0,22.5,30.33,NW,310,12.0,15.4,39,0.00,,,-99.99,FreeWX 2.03,2013-01-16 16:51:00,
2013-01-16 10:56:00,46.2,22.1,30.33,NW,312,12.0,18.1,38,0.00,,,-99.99,FreeWX 2.03,2013-01-16 16:56:00,
2013-01-16 11:01:00,46.4,22.8,30.33,NW,311,13.0,16.8,39,0.00,,,-99.99,FreeWX 2.03,2013-01-16 17:01:00,
2013-01-16 11:06:00,46.8,22.5,30.33,NW,311,12.0,15.9,38,0.00,,,-99.99,FreeWX 2.03,2013-01-16 17:06:00,
2013-01-16 11:11:00,46.9,22.6,30.33,NW,313,12.0,15.4,38,0.00,,,-99.99,FreeWX 2.03,2013-01-16 17:11:00,
2013-01-16 11:16:00,47.3,23.0,30.33,NW,310,12.0,18.1,38,0.00,,,-99.99,FreeWX 2.03,2013-01-16 17:16:00,
2013-01-16 11:21:00,47.8,23.5,30.33,NW,308,14.0,18.6,38,0.00,,,-99.99,FreeWX 2.03,2013-01-16 17:21:00,
2013-01-16 11:26:00,48.2,23.2,30.33,NW,311,14.0,17.2,37,0.00,,,-99.99,FreeWX 2.03,2013-01-16 17:26:00,
2013-01-16 11:31:00,48.4,23.4,30.33,NW,311,12.0,17.2,37,0.00,,,-99.99,FreeWX 2.03,2013-01-16 17:31:00,
2013-01-16 11:36:00,48.7,24.3,30.33,NW,311,12.0,19.0,38,0.00,,,-99.99,FreeWX 2.03,2013-01-16 17:36:00,
2013-01-16 11:41:00,49.1,23.9,30.30,NW,308,12.0,17.7,37,0.00,,,-99.99,FreeWX 2.03,2013-01-16 17:41:00,
2013-01-16 11:46:00,49.3,24.8,30.30,NW,306,13.0,19.5,38,0.00,,,-99.99,FreeWX 2.03,2013-01-16 17:46:00,
2013-01-16 11:51:00,49.6,25.2,30.30,NW,306,14.0,18.6,38,0.00,,,-99.99,FreeWX 2.03,2013-01-16 17:51:00,
2013-01-16 11:56:00,49.8,24.6,30.30,NW,304,15.0,20.6,37,0.00,,,-99.99,FreeWX 2.03,2013-01-16 17:56:00,
2013-01-16 12:01:00,49.8,24.6,30.30,WNW,301,14.0,17.2,37,0.00,,,-99.99,FreeWX 2.03,2013-01-16 18:01:00,
2013-01-16 12:06:00,49.8,22.6,30.30,WNW,299,13.0,19.5,34,0.00,,,-99.99,FreeWX 2.03,2013-01-16 18:06:00,
2013-01-16 12:11:00,50.2,22.8,30.30,WNW,301,14.0,19.5,34,0.00,,,-99.99,FreeWX 2.03,2013-01-16 18:11:00,
2013-01-16 12:16:00,50.7,25.3,30.30,WNW,303,15.0,19.5,37,0.00,,,-99.99,FreeWX 2.03,2013-01-16 18:16:00,
2013-01-16 12:21:00,50.9,23.5,30.30,NW,304,14.0,18.1,34,0.00,,,-99.99,FreeWX 2.03,2013-01-16 18:21:00,
2013-01-16 12:26:00,51.1,23.7,30.27,WNW,303,14.0,18.6,34,0.00,,,-99.99,FreeWX 2.03,2013-01-16 18:26:00,
2013-01-16 12:31:00,51.3,23.9,30.27,WNW,303,14.0,18.1,34,0.00,,,-99.99,FreeWX 2.03,2013-01-16 18:31:00,
2013-01-16 12:36:00,51.6,24.3,30.27,WNW,299,14.0,20.6,34,0.00,,,-99.99,FreeWX 2.03,2013-01-16 18:36:00,
2013-01-16 12:41:00,51.8,24.3,30.27,WNW,297,15.0,17.7,34,0.00,,,-99.99,FreeWX 2.03,2013-01-16 18:41:00,
2013-01-16 12:46:00,52.0,24.4,30.27,WNW,297,14.0,18.1,34,0.00,,,-99.99,FreeWX 2.03,2013-01-16 18:46:00,
2013-01-16 12:51:00,52.2,24.6,30.27,WNW,296,14.0,19.5,34,0.00,,,-99.99,FreeWX 2.03,2013-01-16 18:51:00,
2013-01-16 12:56:00,52.2,24.6,30.27,WNW,297,14.0,18.1,34,0.00,,,-99.99,FreeWX 2.03,2013-01-16 18:56:00,
2013-01-16 13:02:00,52.2,24.6,30.27,WNW,296,13.0,17.2,34,0.00,,,-99.99,FreeWX 2.03,2013-01-16 19:02:00,
2013-01-16 13:07:00,52.7,26.4,30.27,WNW,294,14.0,19.9,36,0.00,,,-99.99,FreeWX 2.03,2013-01-16 19:07:00,
2013-01-16 13:12:00,52.9,23.0,30.27,WNW,297,15.0,18.1,31,0.00,,,-99.99,FreeWX 2.03,2013-01-16 19:12:00,
2013-01-16 13:17:00,53.1,23.2,30.27,WNW,294,13.0,16.3,31,0.00,,,-99.99,FreeWX 2.03,2013-01-16 19:17:00,
2013-01-16 13:22:00,53.2,25.5,30.27,WNW,293,12.0,19.0,34,0.00,,,-99.99,FreeWX 2.03,2013-01-16 19:22:00,
2013-01-16 13:27:00,53.6,23.7,30.24,WNW,296,13.0,17.7,31,0.00,,,-99.99,FreeWX 2.03,2013-01-16 19:27:00,
2013-01-16 13:32:00,54.0,24.1,30.24,WNW,294,14.0,22.8,31,0.00,,,-99.99,FreeWX 2.03,2013-01-16 19:32:00,
2013-01-16 13:37:00,54.3,24.3,30.24,WNW,292,16.0,20.1,31,0.00,,,-99.99,FreeWX 2.03,2013-01-16 19:37:00,
2013-01-16 13:42:00,54.7,24.6,30.24,WNW,292,17.0,24.2,31,0.00,,,-99.99,FreeWX 2.03,2013-01-16 19:42:00,
2013-01-16 13:47:00,54.7,24.6,30.24,WNW,290,18.0,21.0,31,0.00,,,-99.99,FreeWX 2.03,2013-01-16 19:47:00,
2013-01-16 13:52:00,54.9,24.8,30.24,WNW,288,17.0,26.6,31,0.00,,,-99.99,FreeWX 2.03,2013-01-16 19:52:00,
2013-01-16 13:57:00,55.0,25.0,30.24,WNW,285,19.0,25.3,31,0.00,,,-99.99,FreeWX 2.03,2013-01-16 19:57:00,
2013-01-16 14:02:00,55.0,25.0,30.24,WNW,285,18.0,23.7,31,0.00,,,-99.99,FreeWX 2.03,2013-01-16 20:02:00,
2013-01-16 14:07:00,55.0,25.0,30.24,WNW,285,18.0,25.3,31,0.00,,,-99.99,FreeWX 2.03,2013-01-16 20:07:00,
2013-01-16 14:12:00,55.4,25.3,30.24,WNW,289,17.0,21.5,31,0.00,,,-99.99,FreeWX 2.03,2013-01-16 20:12:00,
2013-01-16 14:17:00,55.4,25.3,30.24,WNW,289,16.0,23.3,31,0.00,,,-99.99,FreeWX 2.03,2013-01-16 20:17:00,
2013-01-16 14:22:00,55.4,22.8,30.24,WNW,282,17.0,24.2,28,0.00,,,-99.99,FreeWX 2.03,2013-01-16 20:22:00,
2013-01-16 14:27:00,55.6,25.5,30.21,West,281,17.0,21.5,31,0.00,,,-99.99,FreeWX 2.03,2013-01-16 20:27:00,
2013-01-16 14:32:00,55.9,25.7,30.21,WNW,284,15.0,19.0,31,0.00,,,-99.99,FreeWX 2.03,2013-01-16 20:32:00,
2013-01-16 14:37:00,56.1,25.9,30.21,WNW,284,15.0,21.5,31,0.00,,,-99.99,FreeWX 2.03,2013-01-16 20:37:00,
2013-01-16 14:42:00,55.9,23.4,30.21,West,278,17.0,24.8,28,0.00,,,-99.99,FreeWX 2.03,2013-01-16 20:42:00,
2013-01-16 14:47:00,56.3,26.1,30.21,West,274,17.0,19.0,31,0.00,,,-99.99,FreeWX 2.03,2013-01-16 20:47:00,
2013-01-16 14:52:00,56.5,26.2,30.21,West,276,15.0,21.5,31,0.00,,,-99.99,FreeWX 2.03,2013-01-16 20:52:00,
2013-01-16 14:57:00,56.8,24.1,30.21,West,278,16.0,21.5,28,0.00,,,-99.99,FreeWX 2.03,2013-01-16 20:57:00,
2013-01-16 15:02:00,57.0,24.3,30.21,West,279,19.0,27.1,28,0.00,,,-99.99,FreeWX 2.03,2013-01-16 21:02:00,
2013-01-16 15:07:00,57.0,24.3,30.21,West,279,20.0,25.7,28,0.00,,,-99.99,FreeWX 2.03,2013-01-16 21:07:00,
2013-01-16 15:12:00,57.2,24.4,30.21,West,278,19.0,25.3,28,0.00,,,-99.99,FreeWX 2.03,2013-01-16 21:12:00,
2013-01-16 15:17:00,57.4,24.6,30.21,West,279,19.0,22.8,28,0.00,,,-99.99,FreeWX 2.03,2013-01-16 21:17:00,
2013-01-16 15:22:00,57.2,24.4,30.21,West,275,19.0,22.4,28,0.00,,,-99.99,FreeWX 2.03,2013-01-16 21:22:00,
2013-01-16 15:27:00,57.4,24.6,30.21,West,273,19.0,23.3,28,0.00,,,-99.99,FreeWX 2.03,2013-01-16 21:27:00,
2013-01-16 15:32:00,57.4,24.6,30.21,West,277,18.0,21.9,28,0.00,,,-99.99,FreeWX 2.03,2013-01-16 21:32:00,
2013-01-16 15:37:00,57.4,24.6,30.21,West,278,18.0,22.8,28,0.00,,,-99.99,FreeWX 2.03,2013-01-16 21:37:00,
2013-01-16 15:42:00,57.6,24.6,30.21,West,278,17.0,21.0,28,0.00,,,-99.99,FreeWX 2.03,2013-01-16 21:42:00,
2013-01-16 15:47:00,57.7,24.8,30.21,West,278,17.0,25.3,28,0.00,,,-99.99,FreeWX 2.03,2013-01-16 21:47:00,
2013-01-16 15:52:00,57.7,24.8,30.21,West,274,17.0,20.1,28,0.00,,,-99.99,FreeWX 2.03,2013-01-16 21:52:00,
2013-01-16 15:57:00,57.6,24.6,30.21,West,271,16.0,23.3,28,0.00,,,-99.99,FreeWX 2.03,2013-01-16 21:57:00,
2013-01-16 16:02:00,57.6,24.6,30.21,West,270,17.0,19.5,28,0.00,,,-99.99,FreeWX 2.03,2013-01-16 22:02:00,
2013-01-16 16:07:00,57.6,24.6,30.21,West,270,16.0,20.6,28,0.00,,,-99.99,FreeWX 2.03,2013-01-16 22:07:00,
2013-01-16 16:12:00,57.6,24.6,30.21,West,270,15.0,19.0,28,0.00,,,-99.99,FreeWX 2.03,2013-01-16 22:12:00,
2013-01-16 16:17:00,57.7,24.8,30.21,West,268,16.0,23.3,28,0.00,,,-99.99,FreeWX 2.03,2013-01-16 22:17:00,
2013-01-16 16:22:00,57.6,24.6,30.21,West,267,16.0,19.0,28,0.00,,,-99.99,FreeWX 2.03,2013-01-16 22:22:00,
2013-01-16 16:27:00,57.9,25.0,30.21,West,269,15.0,18.6,28,0.00,,,-99.99,FreeWX 2.03,2013-01-16 22:27:00,
2013-01-16 16:32:00,57.9,25.0,30.21,West,269,14.0,18.1,28,0.00,,,-99.99,FreeWX 2.03,2013-01-16 22:32:00,
2013-01-16 16:37:00,58.3,25.3,30.21,West,265,14.0,19.9,28,0.00,,,-99.99,FreeWX 2.03,2013-01-16 22:37:00,
2013-01-16 16:42:00,58.3,25.3,30.21,West,260,14.0,18.1,28,0.00,,,-99.99,FreeWX 2.03,2013-01-16 22:42:00,
2013-01-16 16:47:00,58.5,25.5,30.21,West,259,14.0,19.0,28,0.00,,,-99.99,FreeWX 2.03,2013-01-16 22:47:00,
2013-01-16 16:52:00,58.6,25.7,30.21,WSW,257,14.0,17.7,28,0.00,,,-99.99,FreeWX 2.03,2013-01-16 22:52:00,
2013-01-16 16:57:00,58.5,25.5,30.21,WSW,255,15.0,21.0,28,0.00,,,-99.99,FreeWX 2.03,2013-01-16 22:57:00,
2013-01-16 17:02:00,58.5,25.5,30.21,WSW,253,16.0,18.1,28,0.00,,,-99.99,FreeWX 2.03,2013-01-16 23:02:00,
2013-01-16 17:07:00,58.3,25.3,30.21,WSW,250,15.0,21.0,28,0.00,,,-99.99,FreeWX 2.03,2013-01-16 23:07:00,
2013-01-16 17:12:00,58.3,25.3,30.21,WSW,245,14.0,16.8,28,0.00,,,-99.99,FreeWX 2.03,2013-01-16 23:12:00,
2013-01-16 17:17:00,58.1,25.2,30.21,WSW,240,14.0,19.0,28,0.00,,,-99.99,FreeWX 2.03,2013-01-16 23:17:00,
2013-01-16 17:22:00,57.9,25.0,30.21,SW,236,14.0,18.6,28,0.00,,,-99.99,FreeWX 2.03,2013-01-16 23:22:00,
2013-01-16 17:27:00,57.9,25.0,30.21,SW,233,14.0,16.8,28,0.00,,,-99.99,FreeWX 2.03,2013-01-16 23:27:00,
2013-01-16 17:32:00,57.6,24.6,30.21,SW,229,13.0,17.7,28,0.00,,,-99.99,FreeWX 2.03,2013-01-16 23:32:00,
2013-01-16 17:37:00,57.6,24.6,30.21,SW,223,14.0,20.6,28,0.00,,,-99.99,FreeWX 2.03,2013-01-16 23:37:00,
2013-01-16 17:42:00,57.4,24.6,30.21,SW,220,14.0,17.7,28,0.00,,,-99.99,FreeWX 2.03,2013-01-16 23:42:00,
2013-01-16 17:47:00,56.8,24.1,30.21,SW,219,13.0,15.4,28,0.00,,,-99.99,FreeWX 2.03,2013-01-16 23:47:00,
2013-01-16 17:52:00,56.5,23.7,30.21,SW,217,12.0,15.2,28,0.00,,,-99.99,FreeWX 2.03,2013-01-16 23:52:00,
2013-01-16 17:57:00,56.1,23.5,30.21,SW,215,12.0,15.9,28,0.00,,,-99.99,FreeWX 2.03,2013-01-16 23:57:00,
2013-01-16 18:02:00,55.9,23.4,30.21,SSW,209,12.0,14.8,28,0.00,,,-99.99,FreeWX 2.03,2013-01-17 00:02:00,
2013-01-16 18:07:00,55.6,23.0,30.21,SSW,207,11.0,12.5,28,0.00,,,-99.99,FreeWX 2.03,2013-01-17 00:07:00,
2013-01-16 18:12:00,55.0,23.4,30.24,SSW,207,10.0,11.6,29,0.00,,,-99.99,FreeWX 2.03,2013-01-17 00:12:00,
2013-01-16 18:17:00,54.9,23.2,30.24,SSW,205,9.0,11.2,29,0.00,,,-99.99,FreeWX 2.03,2013-01-17 00:17:00,
2013-01-16 18:22:00,54.5,24.4,30.24,SSW,203,8.0,9.2,31,0.00,,,-99.99,FreeWX 2.03,2013-01-17 00:22:00,
2013-01-16 18:27:00,54.1,26.4,30.24,SSW,201,7.0,9.6,34,0.00,,,-99.99,FreeWX 2.03,2013-01-17 00:27:00,
2013-01-16 18:32:00,54.1,26.4,30.24,SSW,199,8.0,11.0,34,0.00,,,-99.99,FreeWX 2.03,2013-01-17 00:32:00,
2013-01-16 18:37:00,54.1,26.4,30.24,SSW,198,8.0,10.1,34,0.00,,,-99.99,FreeWX 2.03,2013-01-17 00:37:00,
2013-01-16 18:42:00,54.0,27.7,30.24,SSW,199,8.0,10.1,36,0.00,,,-99.99,FreeWX 2.03,2013-01-17 00:42:00,
2013-01-16 18:47:00,53.8,28.0,30.24,SSW,198,8.0,10.1,37,0.00,,,-99.99,FreeWX 2.03,2013-01-17 00:47:00,
2013-01-16 18:52:00,54.0,28.9,30.24,SSW,198,8.0,10.1,38,0.00,,,-99.99,FreeWX 2.03,2013-01-17 00:52:00,
2013-01-16 18:57:00,53.8,28.8,30.24,SSW,200,8.0,9.2,38,0.00,,,-99.99,FreeWX 2.03,2013-01-17 00:57:00,
2013-01-16 19:02:00,53.6,29.8,30.24,SSW,200,7.0,8.7,40,0.00,,,-99.99,FreeWX 2.03,2013-01-17 01:02:00,
2013-01-16 19:07:00,53.2,29.5,30.24,SSW,203,7.0,7.8,40,0.00,,,-99.99,FreeWX 2.03,2013-01-17 01:07:00,
2013-01-16 19:12:00,52.9,28.0,30.24,SSW,205,7.0,8.3,38,0.00,,,-99.99,FreeWX 2.03,2013-01-17 01:12:00,
2013-01-16 19:17:00,52.5,27.7,30.24,SSW,203,7.0,8.3,38,0.00,,,-99.99,FreeWX 2.03,2013-01-17 01:17:00,
2013-01-16 19:22:00,52.2,28.0,30.24,SSW,202,7.0,7.8,39,0.00,,,-99.99,FreeWX 2.03,2013-01-17 01:22:00,
2013-01-16 19:27:00,51.8,27.7,30.24,SSW,204,6.0,6.9,39,0.00,,,-99.99,FreeWX 2.03,2013-01-17 01:27:00,
2013-01-16 19:32:00,51.6,28.0,30.24,SSW,207,6.0,6.9,40,0.00,,,-99.99,FreeWX 2.03,2013-01-17 01:32:00,
2013-01-16 19:37:00,51.6,30.9,30.24,SSW,206,6.0,6.9,45,0.00,,,-99.99,FreeWX 2.03,2013-01-17 01:37:00,
2013-01-16 19:42:00,51.6,32.0,30.27,SSW,206,6.0,6.7,47,0.00,,,-99.99,FreeWX 2.03,2013-01-17 01:42:00,
2013-01-16 19:47:00,51.6,32.0,30.27,SSW,209,6.0,6.9,47,0.00,,,-99.99,FreeWX 2.03,2013-01-17 01:47:00,
2013-01-16 19:52:00,51.3,30.0,30.27,SW,214,6.0,7.4,44,0.00,,,-99.99,FreeWX 2.03,2013-01-17 01:52:00,
2013-01-16 19:57:00,50.9,28.6,30.27,SW,218,6.0,7.4,42,0.00,,,-99.99,FreeWX 2.03,2013-01-17 01:57:00,
2013-01-16 20:02:00,50.7,28.4,30.27,SW,219,6.0,7.4,42,0.00,,,-99.99,FreeWX 2.03,2013-01-17 02:02:00,
2013-01-16 20:07:00,50.4,29.3,30.27,SW,220,6.0,7.4,44,0.00,,,-99.99,FreeWX 2.03,2013-01-17 02:07:00,
2013-01-16 20:12:00,50.2,29.1,30.27,SW,221,6.0,6.9,44,0.00,,,-99.99,FreeWX 2.03,2013-01-17 02:12:00,
2013-01-16 20:17:00,49.8,28.2,30.27,SW,223,6.0,7.4,43,0.00,,,-99.99,FreeWX 2.03,2013-01-17 02:17:00,
2013-01-16 20:22:00,49.8,28.8,30.27,SW,225,6.0,7.4,44,0.00,,,-99.99,FreeWX 2.03,2013-01-17 02:22:00,
2013-01-16 20:27:00,49.8,28.2,30.27,SW,225,6.0,6.9,43,0.00,,,-99.99,FreeWX 2.03,2013-01-17 02:27:00,
2013-01-16 20:32:00,49.8,27.7,30.27,SW,226,6.0,6.9,42,0.00,,,-99.99,FreeWX 2.03,2013-01-17 02:32:00,
2013-01-16 20:37:00,49.8,28.2,30.27,SW,226,6.0,6.7,43,0.00,,,-99.99,FreeWX 2.03,2013-01-17 02:37:00,
2013-01-16 20:42:00,49.8,28.8,30.27,SW,224,6.0,6.7,44,0.00,,,-99.99,FreeWX 2.03,2013-01-17 02:42:00,
2013-01-16 20:47:00,49.8,29.3,30.27,SW,224,6.0,6.9,45,0.00,,,-99.99,FreeWX 2.03,2013-01-17 02:47:00,
2013-01-16 20:52:00,49.5,29.5,30.27,SW,227,6.0,6.9,46,0.00,,,-99.99,FreeWX 2.03,2013-01-17 02:52:00,
2013-01-16 20:57:00,49.5,30.6,30.27,SW,227,6.0,6.7,48,0.00,,,-99.99,FreeWX 2.03,2013-01-17 02:57:00,
2013-01-16 21:02:00,49.5,30.6,30.27,SW,226,5.0,6.3,48,0.00,,,-99.99,FreeWX 2.03,2013-01-17 03:02:00,
2013-01-16 21:07:00,49.6,30.7,30.27,SW,225,5.0,6.3,48,0.00,,,-99.99,FreeWX 2.03,2013-01-17 03:07:00,
2013-01-16 21:12:00,49.6,31.3,30.27,SW,227,6.0,6.9,49,0.00,,,-99.99,FreeWX 2.03,2013-01-17 03:12:00,
2013-01-16 21:17:00,50.0,31.1,30.27,SW,227,6.0,6.9,48,0.00,,,-99.99,FreeWX 2.03,2013-01-17 03:17:00,
2013-01-16 21:22:00,50.2,31.3,30.27,SW,229,6.0,6.9,48,0.00,,,-99.99,FreeWX 2.03,2013-01-17 03:22:00,
2013-01-16 21:27:00,50.0,31.6,30.27,SW,232,6.0,6.7,49,0.00,,,-99.99,FreeWX 2.03,2013-01-17 03:27:00,
2013-01-16 21:32:00,49.8,32.0,30.27,SW,236,6.0,6.7,50,0.00,,,-99.99,FreeWX 2.03,2013-01-17 03:32:00,
2013-01-16 21:37:00,49.8,32.0,30.27,SW,236,6.0,6.7,50,0.00,,,-99.99,FreeWX 2.03,2013-01-17 03:37:00,
2013-01-16 21:42:00,49.6,31.3,30.27,SW,235,5.0,6.3,49,0.00,,,-99.99,FreeWX 2.03,2013-01-17 03:42:00,
2013-01-16 21:47:00,49.6,31.8,30.27,SW,234,5.0,5.8,50,0.00,,,-99.99,FreeWX 2.03,2013-01-17 03:47:00,
2013-01-16 21:52:00,49.8,32.0,30.27,SW,233,5.0,5.4,50,0.00,,,-99.99,FreeWX 2.03,2013-01-17 03:52:00,
2013-01-16 21:57:00,49.6,32.2,30.27,SW,234,4.0,5.8,51,0.00,,,-99.99,FreeWX 2.03,2013-01-17 03:57:00,
2013-01-16 22:02:00,49.5,32.2,30.27,WSW,239,4.0,5.8,51,0.00,,,-99.99,FreeWX 2.03,2013-01-17 04:02:00,
2013-01-16 22:07:00,49.3,32.0,30.27,WSW,242,4.0,5.8,51,0.00,,,-99.99,FreeWX 2.03,2013-01-17 04:07:00,
2013-01-16 22:12:00,49.1,31.8,30.27,WSW,237,4.0,4.9,51,0.00,,,-99.99,FreeWX 2.03,2013-01-17 04:12:00,
2013-01-16 22:17:00,49.1,32.2,30.27,SW,232,4.0,4.9,52,0.00,,,-99.99,FreeWX 2.03,2013-01-17 04:17:00,
2013-01-16 22:22:00,49.1,32.7,30.27,SW,236,4.0,4.9,53,0.00,,,-99.99,FreeWX 2.03,2013-01-17 04:22:00,
2013-01-16 22:28:00,49.1,33.3,30.27,WSW,238,4.0,4.9,54,0.00,,,-99.99,FreeWX 2.03,2013-01-17 04:28:00,
2013-01-16 22:33:00,49.3,33.3,30.27,WSW,239,3.0,4.0,54,0.00,,,-99.99,FreeWX 2.03,2013-01-17 04:33:00,
2013-01-16 22:38:00,49.1,33.3,30.27,WSW,237,3.0,4.5,54,0.00,,,-99.99,FreeWX 2.03,2013-01-17 04:38:00,
2013-01-16 22:43:00,49.1,33.6,30.27,WSW,237,3.0,4.0,55,0.00,,,-99.99,FreeWX 2.03,2013-01-17 04:43:00,
2013-01-16 22:48:00,48.9,34.0,30.27,WSW,241,3.0,3.6,56,0.00,,,-99.99,FreeWX 2.03,2013-01-17 04:48:00,
2013-01-16 22:53:00,48.6,33.6,30.27,WSW,243,3.0,4.9,56,0.00,,,-99.99,FreeWX 2.03,2013-01-17 04:53:00,
2013-01-16 22:58:00,48.6,34.0,30.27,WSW,249,4.0,4.9,57,0.00,,,-99.99,FreeWX 2.03,2013-01-17 04:58:00,
2013-01-16 23:03:00,48.6,34.5,30.27,WSW,252,3.0,4.5,58,0.00,,,-99.99,FreeWX 2.03,2013-01-17 05:03:00,
2013-01-16 23:08:00,48.6,34.5,30.27,WSW,249,4.0,4.9,58,0.00,,,-99.99,FreeWX 2.03,2013-01-17 05:08:00,
2013-01-16 23:13:00,48.6,34.9,30.27,WSW,247,4.0,4.9,59,0.00,,,-99.99,FreeWX 2.03,2013-01-17 05:13:00,
2013-01-16 23:18:00,48.7,35.4,30.27,WSW,245,4.0,4.9,60,0.00,,,-99.99,FreeWX 2.03,2013-01-17 05:18:00,
2013-01-16 23:23:00,48.9,36.1,30.27,WSW,245,4.0,4.9,61,0.00,,,-99.99,FreeWX 2.03,2013-01-17 05:23:00,
2013-01-16 23:28:00,48.9,36.5,30.27,WSW,247,4.0,4.9,62,0.00,,,-99.99,FreeWX 2.03,2013-01-17 05:28:00,
2013-01-16 23:33:00,48.7,36.7,30.27,WSW,253,4.0,4.9,63,0.00,,,-99.99,FreeWX 2.03,2013-01-17 05:33:00,
2013-01-16 23:38:00,48.7,37.0,30.27,WSW,256,4.0,4.9,64,0.00,,,-99.99,FreeWX 2.03,2013-01-17 05:38:00,
2013-01-16 23:43:00,48.7,37.6,30.27,WSW,255,4.0,4.5,65,0.00,,,-99.99,FreeWX 2.03,2013-01-17 05:43:00,
2013-01-16 23:48:00,48.7,37.9,30.27,WSW,255,4.0,4.9,66,0.00,,,-99.99,FreeWX 2.03,2013-01-17 05:48:00,
2013-01-16 23:53:00,48.7,38.3,30.27,WSW,255,4.0,4.5,67,0.00,,,-99.99,FreeWX 2.03,2013-01-17 05:53:00,
2013-01-16 23:58:00,48.6,38.5,30.27,WSW,255,4.0,4.5,68,0.00,,,-99.99,FreeWX 2.03,2013-01-17 05:58:00,